Year,Month,Day,Hour,Minute,Value (Times are PST for windgust in km/hr)
2006,12,13,00,00,29.00
2006,12,13,00,01,45.10
2006,12,13,00,02,33.80
2006,12,13,00,03,37.00
2006,12,13,00,04,40.20
2006,12,13,00,05,43.50
2006,12,13,00,06,46.70
2006,12,13,00,07,43.50
2006,12,13,00,08,37.00
2006,12,13,00,09,37.00
2006,12,13,00,10,40.20
2006,12,13,00,11,35.40
2006,12,13,00,12,38.60
2006,12,13,00,13,49.90
2006,12,13,00,14,33.80
2006,12,13,00,15,30.60
2006,12,13,00,16,43.50
2006,12,13,00,17,33.80
2006,12,13,00,18,38.60
2006,12,13,00,19,41.80
2006,12,13,00,20,41.80
2006,12,13,00,21,25.70
2006,12,13,00,22,45.10
2006,12,13,00,23,53.10
2006,12,13,00,24,33.80
2006,12,13,00,25,46.70
2006,12,13,00,26,29.00
2006,12,13,00,27,35.40
2006,12,13,00,28,45.10
2006,12,13,00,29,51.50
2006,12,13,00,30,33.80
2006,12,13,00,31,45.10
2006,12,13,00,32,40.20
2006,12,13,00,33,32.20
2006,12,13,00,34,33.80
2006,12,13,00,35,43.50
2006,12,13,00,36,27.40
2006,12,13,00,37,38.60
2006,12,13,00,38,32.20
2006,12,13,00,39,17.70
2006,12,13,00,40,30.60
2006,12,13,00,41,30.60
2006,12,13,00,42,24.20
2006,12,13,00,43,27.40
2006,12,13,00,44,30.60
2006,12,13,00,45,32.20
2006,12,13,00,46,38.60
2006,12,13,00,47,32.20
2006,12,13,00,48,35.40
2006,12,13,00,49,30.60
2006,12,13,00,50,40.20
2006,12,13,00,51,33.80
2006,12,13,00,52,37.00
2006,12,13,00,53,33.80
2006,12,13,00,54,32.20
2006,12,13,00,55,20.90
2006,12,13,00,56,27.40
2006,12,13,00,57,32.20
2006,12,13,00,58,41.80
2006,12,13,00,59,37.00
2006,12,13,01,00,33.80
2006,12,13,01,01,24.20
2006,12,13,01,02,30.60
2006,12,13,01,03,32.20
2006,12,13,01,04,29.00
2006,12,13,01,05,25.70
2006,12,13,01,06,29.00
2006,12,13,01,07,22.50
2006,12,13,01,08,22.50
2006,12,13,01,09,32.20
2006,12,13,01,10,25.70
2006,12,13,01,11,20.90
2006,12,13,01,12,29.00
2006,12,13,01,13,35.40
2006,12,13,01,14,25.70
2006,12,13,01,15,40.20
2006,12,13,01,16,33.80
2006,12,13,01,17,37.00
2006,12,13,01,18,33.80
2006,12,13,01,19,35.40
2006,12,13,01,20,30.60
2006,12,13,01,21,30.60
2006,12,13,01,22,30.60
2006,12,13,01,23,41.80
2006,12,13,01,24,29.00
2006,12,13,01,25,35.40
2006,12,13,01,26,38.60
2006,12,13,01,27,38.60
2006,12,13,01,28,27.40
2006,12,13,01,29,24.20
2006,12,13,01,30,38.60
2006,12,13,01,31,30.60
2006,12,13,01,32,33.80
2006,12,13,01,33,30.60
2006,12,13,01,34,25.70
2006,12,13,01,35,40.20
2006,12,13,01,36,41.80
2006,12,13,01,37,27.40
2006,12,13,01,38,41.80
2006,12,13,01,39,37.00
2006,12,13,01,40,17.70
2006,12,13,01,41,37.00
2006,12,13,01,42,32.20
2006,12,13,01,43,32.20
2006,12,13,01,44,32.20
2006,12,13,01,45,24.20
2006,12,13,01,46,22.50
2006,12,13,01,47,30.60
2006,12,13,01,48,24.20
2006,12,13,01,49,35.40
2006,12,13,01,50,32.20
2006,12,13,01,51,33.80
2006,12,13,01,52,25.70
2006,12,13,01,53,27.40
2006,12,13,01,54,30.60
2006,12,13,01,55,37.00
2006,12,13,01,56,40.20
2006,12,13,01,57,30.60
2006,12,13,01,58,43.50
2006,12,13,01,59,40.20
2006,12,13,02,00,30.60
2006,12,13,02,01,45.10
2006,12,13,02,02,32.20
2006,12,13,02,03,37.00
2006,12,13,02,04,33.80
2006,12,13,02,05,30.60
2006,12,13,02,06,24.20
2006,12,13,02,07,29.00
2006,12,13,02,08,35.40
2006,12,13,02,09,32.20
2006,12,13,02,10,32.20
2006,12,13,02,11,30.60
2006,12,13,02,12,27.40
2006,12,13,02,13,30.60
2006,12,13,02,14,27.40
2006,12,13,02,15,30.60
2006,12,13,02,16,24.20
2006,12,13,02,17,25.70
2006,12,13,02,18,20.90
2006,12,13,02,19,25.70
2006,12,13,02,20,27.40
2006,12,13,02,21,20.90
2006,12,13,02,22,17.70
2006,12,13,02,23,17.70
2006,12,13,02,24,22.50
2006,12,13,02,25,16.10
2006,12,13,02,26,11.30
2006,12,13,02,27,19.30
2006,12,13,02,28,20.90
2006,12,13,02,29,20.90
2006,12,13,02,30,17.70
2006,12,13,02,31,20.90
2006,12,13,02,32,22.50
2006,12,13,02,33,27.40
2006,12,13,02,34,24.20
2006,12,13,02,35,19.30
2006,12,13,02,36,17.70
2006,12,13,02,37,14.50
2006,12,13,02,38,20.90
2006,12,13,02,39,20.90
2006,12,13,02,40,22.50
2006,12,13,02,41,25.70
2006,12,13,02,42,22.50
2006,12,13,02,43,12.90
2006,12,13,02,44,20.90
2006,12,13,02,45,19.30
2006,12,13,02,46,17.70
2006,12,13,02,47,25.70
2006,12,13,02,48,20.90
2006,12,13,02,49,27.40
2006,12,13,02,50,25.70
2006,12,13,02,51,25.70
2006,12,13,02,52,22.50
2006,12,13,02,53,27.40
2006,12,13,02,54,24.20
2006,12,13,02,55,25.70
2006,12,13,02,56,22.50
2006,12,13,02,57,19.30
2006,12,13,02,58,29.00
2006,12,13,02,59,20.90
2006,12,13,03,00,22.50
2006,12,13,03,01,20.90
2006,12,13,03,02,22.50
2006,12,13,03,03,20.90
2006,12,13,03,04,24.20
2006,12,13,03,05,25.70
2006,12,13,03,06,24.20
2006,12,13,03,07,19.30
2006,12,13,03,08,20.90
2006,12,13,03,09,19.30
2006,12,13,03,10,20.90
2006,12,13,03,11,16.10
2006,12,13,03,12,19.30
2006,12,13,03,13,20.90
2006,12,13,03,14,19.30
2006,12,13,03,15,14.50
2006,12,13,03,16,9.60
2006,12,13,03,17,25.70
2006,12,13,03,18,20.90
2006,12,13,03,19,17.70
2006,12,13,03,20,25.70
2006,12,13,03,21,20.90
2006,12,13,03,22,22.50
2006,12,13,03,23,19.30
2006,12,13,03,24,17.70
2006,12,13,03,25,22.50
2006,12,13,03,26,19.30
2006,12,13,03,27,19.30
2006,12,13,03,28,22.50
2006,12,13,03,29,30.60
2006,12,13,03,30,30.60
2006,12,13,03,31,24.20
2006,12,13,03,32,32.20
2006,12,13,03,33,25.70
2006,12,13,03,34,29.00
2006,12,13,03,35,25.70
2006,12,13,03,36,25.70
2006,12,13,03,37,29.00
2006,12,13,03,38,30.60
2006,12,13,03,39,29.00
2006,12,13,03,40,27.40
2006,12,13,03,41,22.50
2006,12,13,03,42,20.90
2006,12,13,03,43,27.40
2006,12,13,03,44,30.60
2006,12,13,03,45,43.50
2006,12,13,03,46,32.20
2006,12,13,03,47,35.40
2006,12,13,03,48,32.20
2006,12,13,03,49,20.90
2006,12,13,03,50,25.70
2006,12,13,03,51,35.40
2006,12,13,03,52,30.60
2006,12,13,03,53,24.20
2006,12,13,03,54,33.80
2006,12,13,03,55,40.20
2006,12,13,03,56,37.00
2006,12,13,03,57,30.60
2006,12,13,03,58,35.40
2006,12,13,03,59,20.90
2006,12,13,04,00,30.60
2006,12,13,04,01,25.70
2006,12,13,04,02,45.10
2006,12,13,04,03,29.00
2006,12,13,04,04,27.40
2006,12,13,04,05,30.60
2006,12,13,04,06,16.10
2006,12,13,04,07,16.10
2006,12,13,04,08,25.70
2006,12,13,04,09,16.10
2006,12,13,04,10,29.00
2006,12,13,04,11,24.20
2006,12,13,04,12,27.40
2006,12,13,04,13,32.20
2006,12,13,04,14,35.40
2006,12,13,04,15,27.40
2006,12,13,04,16,17.70
2006,12,13,04,17,35.40
2006,12,13,04,18,30.60
2006,12,13,04,19,33.80
2006,12,13,04,20,20.90
2006,12,13,04,21,25.70
2006,12,13,04,22,25.70
2006,12,13,04,23,35.40
2006,12,13,04,24,20.90
2006,12,13,04,25,33.80
2006,12,13,04,26,20.90
2006,12,13,04,27,27.40
2006,12,13,04,28,32.20
2006,12,13,04,29,30.60
2006,12,13,04,30,22.50
2006,12,13,04,31,37.00
2006,12,13,04,32,38.60
2006,12,13,04,33,25.70
2006,12,13,04,34,19.30
2006,12,13,04,35,30.60
2006,12,13,04,36,27.40
2006,12,13,04,37,20.90
2006,12,13,04,38,29.00
2006,12,13,04,39,19.30
2006,12,13,04,40,19.30
2006,12,13,04,41,19.30
2006,12,13,04,42,27.40
2006,12,13,04,43,24.20
2006,12,13,04,44,37.00
2006,12,13,04,45,22.50
2006,12,13,04,46,38.60
2006,12,13,04,47,46.70
2006,12,13,04,48,33.80
2006,12,13,04,49,45.10
2006,12,13,04,50,61.20
2006,12,13,04,51,45.10
2006,12,13,04,52,43.50
2006,12,13,04,53,70.80
2006,12,13,04,54,54.70
2006,12,13,04,55,41.80
2006,12,13,04,56,32.20
2006,12,13,04,57,25.70
2006,12,13,04,58,30.60
2006,12,13,04,59,37.00
2006,12,13,05,00,35.40
2006,12,13,05,01,35.40
2006,12,13,05,02,35.40
2006,12,13,05,03,41.80
2006,12,13,05,04,35.40
2006,12,13,05,05,29.00
2006,12,13,05,06,49.90
2006,12,13,05,07,49.90
2006,12,13,05,08,25.70
2006,12,13,05,09,43.50
2006,12,13,05,10,20.90
2006,12,13,05,11,16.10
2006,12,13,05,12,19.30
2006,12,13,05,13,20.90
2006,12,13,05,14,22.50
2006,12,13,05,15,17.70
2006,12,13,05,16,25.70
2006,12,13,05,17,24.20
2006,12,13,05,18,20.90
2006,12,13,05,19,20.90
2006,12,13,05,20,19.30
2006,12,13,05,21,17.70
2006,12,13,05,22,29.00
2006,12,13,05,23,22.50
2006,12,13,05,24,29.00
2006,12,13,05,25,14.50
2006,12,13,05,26,17.70
2006,12,13,05,27,24.20
2006,12,13,05,28,17.70
2006,12,13,05,29,30.60
2006,12,13,05,30,25.70
2006,12,13,05,31,29.00
2006,12,13,05,32,29.00
2006,12,13,05,33,19.30
2006,12,13,05,34,22.50
2006,12,13,05,35,17.70
2006,12,13,05,36,22.50
2006,12,13,05,37,19.30
2006,12,13,05,38,19.30
2006,12,13,05,39,19.30
2006,12,13,05,40,29.00
2006,12,13,05,41,25.70
2006,12,13,05,42,25.70
2006,12,13,05,43,32.20
2006,12,13,05,44,35.40
2006,12,13,05,45,33.80
2006,12,13,05,46,24.20
2006,12,13,05,47,35.40
2006,12,13,05,48,29.00
2006,12,13,05,49,32.20
2006,12,13,05,50,25.70
2006,12,13,05,51,29.00
2006,12,13,05,52,29.00
2006,12,13,05,53,20.90
2006,12,13,05,54,24.20
2006,12,13,05,55,35.40
2006,12,13,05,56,33.80
2006,12,13,05,57,30.60
2006,12,13,05,58,25.70
2006,12,13,05,59,35.40
2006,12,13,06,00,32.20
2006,12,13,06,01,29.00
2006,12,13,06,02,37.00
2006,12,13,06,03,27.40
2006,12,13,06,04,22.50
2006,12,13,06,05,30.60
2006,12,13,06,06,30.60
2006,12,13,06,07,29.00
2006,12,13,06,08,30.60
2006,12,13,06,09,33.80
2006,12,13,06,10,30.60
2006,12,13,06,11,29.00
2006,12,13,06,12,22.50
2006,12,13,06,13,27.40
2006,12,13,06,14,30.60
2006,12,13,06,15,32.20
2006,12,13,06,16,29.00
2006,12,13,06,17,29.00
2006,12,13,06,18,32.20
2006,12,13,06,19,24.20
2006,12,13,06,20,29.00
2006,12,13,06,21,20.90
2006,12,13,06,22,29.00
2006,12,13,06,23,24.20
2006,12,13,06,24,24.20
2006,12,13,06,25,22.50
2006,12,13,06,26,25.70
2006,12,13,06,27,35.40
2006,12,13,06,28,30.60
2006,12,13,06,29,25.70
2006,12,13,06,30,24.20
2006,12,13,06,31,22.50
2006,12,13,06,32,19.30
2006,12,13,06,33,24.20
2006,12,13,06,34,20.90
2006,12,13,06,35,22.50
2006,12,13,06,36,24.20
2006,12,13,06,37,30.60
2006,12,13,06,38,25.70
2006,12,13,06,39,43.50
2006,12,13,06,40,27.40
2006,12,13,06,41,35.40
2006,12,13,06,42,35.40
2006,12,13,06,43,25.70
2006,12,13,06,44,27.40
2006,12,13,06,45,37.00
2006,12,13,06,46,46.70
2006,12,13,06,47,33.80
2006,12,13,06,48,54.70
2006,12,13,06,49,41.80
2006,12,13,06,50,38.60
2006,12,13,06,51,37.00
2006,12,13,06,52,40.20
2006,12,13,06,53,53.10
2006,12,13,06,54,53.10
2006,12,13,06,55,57.90
2006,12,13,06,56,45.10
2006,12,13,06,57,51.50
2006,12,13,06,58,41.80
2006,12,13,06,59,46.70
2006,12,13,07,00,27.40
2006,12,13,07,01,41.80
2006,12,13,07,02,45.10
2006,12,13,07,03,24.20
2006,12,13,07,04,41.80
2006,12,13,07,05,40.20
2006,12,13,07,06,51.50
2006,12,13,07,07,48.30
2006,12,13,07,08,27.40
2006,12,13,07,09,41.80
2006,12,13,07,10,33.80
2006,12,13,07,11,25.70
2006,12,13,07,12,32.20
2006,12,13,07,13,27.40
2006,12,13,07,14,32.20
2006,12,13,07,15,29.00
2006,12,13,07,16,32.20
2006,12,13,07,17,30.60
2006,12,13,07,18,35.40
2006,12,13,07,19,27.40
2006,12,13,07,20,35.40
2006,12,13,07,21,33.80
2006,12,13,07,22,43.50
2006,12,13,07,23,25.70
2006,12,13,07,24,59.50
2006,12,13,07,25,48.30
2006,12,13,07,26,49.90
2006,12,13,07,27,32.20
2006,12,13,07,28,70.80
2006,12,13,07,29,40.20
2006,12,13,07,30,41.80
2006,12,13,07,31,45.10
2006,12,13,07,32,54.70
2006,12,13,07,33,35.40
2006,12,13,07,34,35.40
2006,12,13,07,35,35.40
2006,12,13,07,36,35.40
2006,12,13,07,37,41.80
2006,12,13,07,38,32.20
2006,12,13,07,39,38.60
2006,12,13,07,40,48.30
2006,12,13,07,41,41.80
2006,12,13,07,42,45.10
2006,12,13,07,43,37.00
2006,12,13,07,44,27.40
2006,12,13,07,45,35.40
2006,12,13,07,46,46.70
2006,12,13,07,47,30.60
2006,12,13,07,48,40.20
2006,12,13,07,49,54.70
2006,12,13,07,50,29.00
2006,12,13,07,51,27.40
2006,12,13,07,52,48.30
2006,12,13,07,53,45.10
2006,12,13,07,54,53.10
2006,12,13,07,55,32.20
2006,12,13,07,56,33.80
2006,12,13,07,57,43.50
2006,12,13,07,58,30.60
2006,12,13,07,59,27.40
2006,12,13,08,00,32.20
2006,12,13,08,01,38.60
2006,12,13,08,02,51.50
2006,12,13,08,03,51.50
2006,12,13,08,04,48.30
2006,12,13,08,05,33.80
2006,12,13,08,06,33.80
2006,12,13,08,07,33.80
2006,12,13,08,08,43.50
2006,12,13,08,09,29.00
2006,12,13,08,10,35.40
2006,12,13,08,11,20.90
2006,12,13,08,12,41.80
2006,12,13,08,13,53.10
2006,12,13,08,14,45.10
2006,12,13,08,15,43.50
2006,12,13,08,16,41.80
2006,12,13,08,17,43.50
2006,12,13,08,18,37.00
2006,12,13,08,19,35.40
2006,12,13,08,20,43.50
2006,12,13,08,21,48.30
2006,12,13,08,22,59.50
2006,12,13,08,23,56.30
2006,12,13,08,24,38.60
2006,12,13,08,25,41.80
2006,12,13,08,26,30.60
2006,12,13,08,27,32.20
2006,12,13,08,28,53.10
2006,12,13,08,29,53.10
2006,12,13,08,30,41.80
2006,12,13,08,31,41.80
2006,12,13,08,32,35.40
2006,12,13,08,33,46.70
2006,12,13,08,34,40.20
2006,12,13,08,35,35.40
2006,12,13,08,36,35.40
2006,12,13,08,37,45.10
2006,12,13,08,38,32.20
2006,12,13,08,39,37.00
2006,12,13,08,40,41.80
2006,12,13,08,41,48.30
2006,12,13,08,42,40.20
2006,12,13,08,43,43.50
2006,12,13,08,44,27.40
2006,12,13,08,45,40.20
2006,12,13,08,46,40.20
2006,12,13,08,47,48.30
2006,12,13,08,48,56.30
2006,12,13,08,49,32.20
2006,12,13,08,50,64.40
2006,12,13,08,51,41.80
2006,12,13,08,52,56.30
2006,12,13,08,53,53.10
2006,12,13,08,54,43.50
2006,12,13,08,55,51.50
2006,12,13,08,56,61.20
2006,12,13,08,57,35.40
2006,12,13,08,58,32.20
2006,12,13,08,59,53.10
2006,12,13,09,00,51.50
2006,12,13,09,01,46.70
2006,12,13,09,02,54.70
2006,12,13,09,03,48.30
2006,12,13,09,04,66.00
2006,12,13,09,05,54.70
2006,12,13,09,06,27.40
2006,12,13,09,07,46.70
2006,12,13,09,08,35.40
2006,12,13,09,09,41.80
2006,12,13,09,10,35.40
2006,12,13,09,11,30.60
2006,12,13,09,12,35.40
2006,12,13,09,13,20.90
2006,12,13,09,14,29.00
2006,12,13,09,15,32.20
2006,12,13,09,16,48.30
2006,12,13,09,17,38.60
2006,12,13,09,18,45.10
2006,12,13,09,19,37.00
2006,12,13,09,20,51.50
2006,12,13,09,21,54.70
2006,12,13,09,22,53.10
2006,12,13,09,23,37.00
2006,12,13,09,24,24.20
2006,12,13,09,25,35.40
2006,12,13,09,26,27.40
2006,12,13,09,27,40.20
2006,12,13,09,28,41.80
2006,12,13,09,29,40.20
2006,12,13,09,30,43.50
2006,12,13,09,31,32.20
2006,12,13,09,32,40.20
2006,12,13,09,33,38.60
2006,12,13,09,34,27.40
2006,12,13,09,35,38.60
2006,12,13,09,36,49.90
2006,12,13,09,37,37.00
2006,12,13,09,38,49.90
2006,12,13,09,39,45.10
2006,12,13,09,40,48.30
2006,12,13,09,41,46.70
2006,12,13,09,42,56.30
2006,12,13,09,43,41.80
2006,12,13,09,44,35.40
2006,12,13,09,45,41.80
2006,12,13,09,46,53.10
2006,12,13,09,47,46.70
2006,12,13,09,48,45.10
2006,12,13,09,49,53.10
2006,12,13,09,50,37.00
2006,12,13,09,51,62.70
2006,12,13,09,52,53.10
2006,12,13,09,53,62.70
2006,12,13,09,54,64.40
2006,12,13,09,55,49.90
2006,12,13,09,56,30.60
2006,12,13,09,57,43.50
2006,12,13,09,58,57.90
2006,12,13,09,59,43.50
2006,12,13,10,00,51.50
2006,12,13,10,01,56.30
2006,12,13,10,02,40.20
2006,12,13,10,03,49.90
2006,12,13,10,04,59.50
2006,12,13,10,05,48.30
2006,12,13,10,06,64.40
2006,12,13,10,07,53.10
2006,12,13,10,08,75.60
2006,12,13,10,09,69.20
2006,12,13,10,10,59.50
2006,12,13,10,11,53.10
2006,12,13,10,12,49.90
2006,12,13,10,13,59.50
2006,12,13,10,14,51.50
2006,12,13,10,15,62.70
2006,12,13,10,16,41.80
2006,12,13,10,17,46.70
2006,12,13,10,18,59.50
2006,12,13,10,19,54.70
2006,12,13,10,20,51.50
2006,12,13,10,21,54.70
2006,12,13,10,22,43.50
2006,12,13,10,23,40.20
2006,12,13,10,24,35.40
2006,12,13,10,25,37.00
2006,12,13,10,26,53.10
2006,12,13,10,27,48.30
2006,12,13,10,28,59.50
2006,12,13,10,29,41.80
2006,12,13,10,30,53.10
2006,12,13,10,31,48.30
2006,12,13,10,32,59.50
2006,12,13,10,33,40.20
2006,12,13,10,34,48.30
2006,12,13,10,35,38.60
2006,12,13,10,36,43.50
2006,12,13,10,37,49.90
2006,12,13,10,38,51.50
2006,12,13,10,39,45.10
2006,12,13,10,40,59.50
2006,12,13,10,41,61.20
2006,12,13,10,42,48.30
2006,12,13,10,43,49.90
2006,12,13,10,44,43.50
2006,12,13,10,45,49.90
2006,12,13,10,46,48.30
2006,12,13,10,47,54.70
2006,12,13,10,48,62.70
2006,12,13,10,49,61.20
2006,12,13,10,50,45.10
2006,12,13,10,51,30.60
2006,12,13,10,52,45.10
2006,12,13,10,53,49.90
2006,12,13,10,54,70.80
2006,12,13,10,55,41.80
2006,12,13,10,56,37.00
2006,12,13,10,57,35.40
2006,12,13,10,58,46.70
2006,12,13,10,59,59.50
2006,12,13,11,00,53.10
2006,12,13,11,01,51.50
2006,12,13,11,02,43.50
2006,12,13,11,03,46.70
2006,12,13,11,04,54.70
2006,12,13,11,05,46.70
2006,12,13,11,06,82.10
2006,12,13,11,07,41.80
2006,12,13,11,08,69.20
2006,12,13,11,09,38.60
2006,12,13,11,10,30.60
2006,12,13,11,11,49.90
2006,12,13,11,12,53.10
2006,12,13,11,13,51.50
2006,12,13,11,14,49.90
2006,12,13,11,15,51.50
2006,12,13,11,16,53.10
2006,12,13,11,17,43.50
2006,12,13,11,18,37.00
2006,12,13,11,19,41.80
2006,12,13,11,20,35.40
2006,12,13,11,21,48.30
2006,12,13,11,22,40.20
2006,12,13,11,23,51.50
2006,12,13,11,24,59.50
2006,12,13,11,25,51.50
2006,12,13,11,26,46.70
2006,12,13,11,27,49.90
2006,12,13,11,28,51.50
2006,12,13,11,29,33.80
2006,12,13,11,30,33.80
2006,12,13,11,31,46.70
2006,12,13,11,32,38.60
2006,12,13,11,33,53.10
2006,12,13,11,34,57.90
2006,12,13,11,35,53.10
2006,12,13,11,36,51.50
2006,12,13,11,37,54.70
2006,12,13,11,38,54.70
2006,12,13,11,39,32.20
2006,12,13,11,40,51.50
2006,12,13,11,41,56.30
2006,12,13,11,42,45.10
2006,12,13,11,43,41.80
2006,12,13,11,44,30.60
2006,12,13,11,45,45.10
2006,12,13,11,46,48.30
2006,12,13,11,47,37.00
2006,12,13,11,48,56.30
2006,12,13,11,49,38.60
2006,12,13,11,50,33.80
2006,12,13,11,51,32.20
2006,12,13,11,52,38.60
2006,12,13,11,53,38.60
2006,12,13,11,54,30.60
2006,12,13,11,55,38.60
2006,12,13,11,56,40.20
2006,12,13,11,57,27.40
2006,12,13,11,58,19.30
2006,12,13,11,59,38.60
2006,12,13,12,00,48.30
2006,12,13,12,01,43.50
2006,12,13,12,02,43.50
2006,12,13,12,03,53.10
2006,12,13,12,04,29.00
2006,12,13,12,05,49.90
2006,12,13,12,06,38.60
2006,12,13,12,07,33.80
2006,12,13,12,08,30.60
2006,12,13,12,09,57.90
2006,12,13,12,10,38.60
2006,12,13,12,11,48.30
2006,12,13,12,12,53.10
2006,12,13,12,13,51.50
2006,12,13,12,14,53.10
2006,12,13,12,15,41.80
2006,12,13,12,16,49.90
2006,12,13,12,17,40.20
2006,12,13,12,18,32.20
2006,12,13,12,19,48.30
2006,12,13,12,20,45.10
2006,12,13,12,21,30.60
2006,12,13,12,22,48.30
2006,12,13,12,23,43.50
2006,12,13,12,24,41.80
2006,12,13,12,25,37.00
2006,12,13,12,26,35.40
2006,12,13,12,27,43.50
2006,12,13,12,28,40.20
2006,12,13,12,29,51.50
2006,12,13,12,30,48.30
2006,12,13,12,31,53.10
2006,12,13,12,32,40.20
2006,12,13,12,33,54.70
2006,12,13,12,34,45.10
2006,12,13,12,35,45.10
2006,12,13,12,36,40.20
2006,12,13,12,37,37.00
2006,12,13,12,38,59.50
2006,12,13,12,39,57.90
2006,12,13,12,40,49.90
2006,12,13,12,41,66.00
2006,12,13,12,42,53.10
2006,12,13,12,43,64.40
2006,12,13,12,44,51.50
2006,12,13,12,45,46.70
2006,12,13,12,46,53.10
2006,12,13,12,47,41.80
2006,12,13,12,48,57.90
2006,12,13,12,49,54.70
2006,12,13,12,50,51.50
2006,12,13,12,51,45.10
2006,12,13,12,52,59.50
2006,12,13,12,53,53.10
2006,12,13,12,54,46.70
2006,12,13,12,55,48.30
2006,12,13,12,56,43.50
2006,12,13,12,57,41.80
2006,12,13,12,58,38.60
2006,12,13,12,59,43.50
2006,12,13,13,00,49.90
2006,12,13,13,01,56.30
2006,12,13,13,02,37.00
2006,12,13,13,03,29.00
2006,12,13,13,04,37.00
2006,12,13,13,05,43.50
2006,12,13,13,06,41.80
2006,12,13,13,07,46.70
2006,12,13,13,08,40.20
2006,12,13,13,09,35.40
2006,12,13,13,10,53.10
2006,12,13,13,11,38.60
2006,12,13,13,12,41.80
2006,12,13,13,13,30.60
2006,12,13,13,14,29.00
2006,12,13,13,15,35.40
2006,12,13,13,16,40.20
2006,12,13,13,17,43.50
2006,12,13,13,18,45.10
2006,12,13,13,19,27.40
2006,12,13,13,20,43.50
2006,12,13,13,21,33.80
2006,12,13,13,22,40.20
2006,12,13,13,23,27.40
2006,12,13,13,24,38.60
2006,12,13,13,25,46.70
2006,12,13,13,26,62.70
2006,12,13,13,27,43.50
2006,12,13,13,28,59.50
2006,12,13,13,29,46.70
2006,12,13,13,30,40.20
2006,12,13,13,31,33.80
2006,12,13,13,32,37.00
2006,12,13,13,33,37.00
2006,12,13,13,34,24.20
2006,12,13,13,35,29.00
2006,12,13,13,36,45.10
2006,12,13,13,37,43.50
2006,12,13,13,38,53.10
2006,12,13,13,39,40.20
2006,12,13,13,40,51.50
2006,12,13,13,41,33.80
2006,12,13,13,42,32.20
2006,12,13,13,43,61.20
2006,12,13,13,44,27.40
2006,12,13,13,45,32.20
2006,12,13,13,46,45.10
2006,12,13,13,47,33.80
2006,12,13,13,48,51.50
2006,12,13,13,49,38.60
2006,12,13,13,50,35.40
2006,12,13,13,51,33.80
2006,12,13,13,52,29.00
2006,12,13,13,53,25.70
2006,12,13,13,54,35.40
2006,12,13,13,55,24.20
2006,12,13,13,56,27.40
2006,12,13,13,57,49.90
2006,12,13,13,58,22.50
2006,12,13,13,59,24.20
2006,12,13,14,00,19.30
2006,12,13,14,01,41.80
2006,12,13,14,02,49.90
2006,12,13,14,03,53.10
2006,12,13,14,04,54.70
2006,12,13,14,05,25.70
2006,12,13,14,06,33.80
2006,12,13,14,07,48.30
2006,12,13,14,08,45.10
2006,12,13,14,09,49.90
2006,12,13,14,10,41.80
2006,12,13,14,11,49.90
2006,12,13,14,12,30.60
2006,12,13,14,13,46.70
2006,12,13,14,14,29.00
2006,12,13,14,15,24.20
2006,12,13,14,16,37.00
2006,12,13,14,17,46.70
2006,12,13,14,18,41.80
2006,12,13,14,19,38.60
2006,12,13,14,20,51.50
2006,12,13,14,21,37.00
2006,12,13,14,22,37.00
2006,12,13,14,23,40.20
2006,12,13,14,24,32.20
2006,12,13,14,25,29.00
2006,12,13,14,26,33.80
2006,12,13,14,27,27.40
2006,12,13,14,28,33.80
2006,12,13,14,29,33.80
2006,12,13,14,30,25.70
2006,12,13,14,31,33.80
2006,12,13,14,32,38.60
2006,12,13,14,33,24.20
2006,12,13,14,34,32.20
2006,12,13,14,35,41.80
2006,12,13,14,36,29.00
2006,12,13,14,37,20.90
2006,12,13,14,38,19.30
2006,12,13,14,39,20.90
2006,12,13,14,40,20.90
2006,12,13,14,41,17.70
2006,12,13,14,42,16.10
2006,12,13,14,43,19.30
2006,12,13,14,44,35.40
2006,12,13,14,45,30.60
2006,12,13,14,46,20.90
2006,12,13,14,47,30.60
2006,12,13,14,48,38.60
2006,12,13,14,49,29.00
2006,12,13,14,50,24.20
2006,12,13,14,51,29.00
2006,12,13,14,52,24.20
2006,12,13,14,53,22.50
2006,12,13,14,54,35.40
2006,12,13,14,55,29.00
2006,12,13,14,56,32.20
2006,12,13,14,57,16.10
2006,12,13,14,58,38.60
2006,12,13,14,59,37.00
2006,12,13,15,00,30.60
2006,12,13,15,01,29.00
2006,12,13,15,02,20.90
2006,12,13,15,03,22.50
2006,12,13,15,04,25.70
2006,12,13,15,05,32.20
2006,12,13,15,06,40.20
2006,12,13,15,07,25.70
2006,12,13,15,08,32.20
2006,12,13,15,09,32.20
2006,12,13,15,10,30.60
2006,12,13,15,11,24.20
2006,12,13,15,12,45.10
2006,12,13,15,13,41.80
2006,12,13,15,14,30.60
2006,12,13,15,15,49.90
2006,12,13,15,16,57.90
2006,12,13,15,17,49.90
2006,12,13,15,18,54.70
2006,12,13,15,19,45.10
2006,12,13,15,20,22.50
2006,12,13,15,21,51.50
2006,12,13,15,22,45.10
2006,12,13,15,23,41.80
2006,12,13,15,24,20.90
2006,12,13,15,25,29.00
2006,12,13,15,26,20.90
2006,12,13,15,27,24.20
2006,12,13,15,28,25.70
2006,12,13,15,29,20.90
2006,12,13,15,30,25.70
2006,12,13,15,31,20.90
2006,12,13,15,32,19.30
2006,12,13,15,33,24.20
2006,12,13,15,34,22.50
2006,12,13,15,35,24.20
2006,12,13,15,36,24.20
2006,12,13,15,37,20.90
2006,12,13,15,38,24.20
2006,12,13,15,39,33.80
2006,12,13,15,40,16.10
2006,12,13,15,41,29.00
2006,12,13,15,42,29.00
2006,12,13,15,43,24.20
2006,12,13,15,44,14.50
2006,12,13,15,45,17.70
2006,12,13,15,46,32.20
2006,12,13,15,47,30.60
2006,12,13,15,48,17.70
2006,12,13,15,49,24.20
2006,12,13,15,50,24.20
2006,12,13,15,51,27.40
2006,12,13,15,52,24.20
2006,12,13,15,53,22.50
2006,12,13,15,54,16.10
2006,12,13,15,55,12.90
2006,12,13,15,56,12.90
2006,12,13,15,57,20.90
2006,12,13,15,58,19.30
2006,12,13,15,59,20.90
2006,12,13,16,00,19.30
2006,12,13,16,01,19.30
2006,12,13,16,02,20.90
2006,12,13,16,03,22.50
2006,12,13,16,04,20.90
2006,12,13,16,05,14.50
2006,12,13,16,06,16.10
2006,12,13,16,07,17.70
2006,12,13,16,08,16.10
2006,12,13,16,09,11.30
2006,12,13,16,10,14.50
2006,12,13,16,11,20.90
2006,12,13,16,12,16.10
2006,12,13,16,13,9.60
2006,12,13,16,14,17.70
2006,12,13,16,15,19.30
2006,12,13,16,16,11.30
2006,12,13,16,17,4.80
2006,12,13,16,18,19.30
2006,12,13,16,19,16.10
2006,12,13,16,20,9.60
2006,12,13,16,21,8.10
2006,12,13,16,22,16.10
2006,12,13,16,23,6.40
2006,12,13,16,24,4.80
2006,12,13,16,25,8.10
2006,12,13,16,26,8.10
2006,12,13,16,27,14.50
2006,12,13,16,28,9.60
2006,12,13,16,29,8.10
2006,12,13,16,30,6.40
2006,12,13,16,31,6.40
2006,12,13,16,32,11.30
2006,12,13,16,33,16.10
2006,12,13,16,34,14.50
2006,12,13,16,35,22.50
2006,12,13,16,36,17.70
2006,12,13,16,37,17.70
2006,12,13,16,38,14.50
2006,12,13,16,39,9.60
2006,12,13,16,40,9.60
2006,12,13,16,41,9.60
2006,12,13,16,42,8.10
2006,12,13,16,43,20.90
2006,12,13,16,44,14.50
2006,12,13,16,45,16.10
2006,12,13,16,46,14.50
2006,12,13,16,47,9.60
2006,12,13,16,48,20.90
2006,12,13,16,49,16.10
2006,12,13,16,50,12.90
2006,12,13,16,51,14.50
2006,12,13,16,52,14.50
2006,12,13,16,53,14.50
2006,12,13,16,54,8.10
2006,12,13,16,55,11.30
2006,12,13,16,56,16.10
2006,12,13,16,57,14.50
2006,12,13,16,58,12.90
2006,12,13,16,59,16.10
2006,12,13,17,00,37.00
2006,12,13,17,01,35.40
2006,12,13,17,02,33.80
2006,12,13,17,03,40.20
2006,12,13,17,04,25.70
2006,12,13,17,05,22.50
2006,12,13,17,06,20.90
2006,12,13,17,07,27.40
2006,12,13,17,08,33.80
2006,12,13,17,09,35.40
2006,12,13,17,10,25.70
2006,12,13,17,11,20.90
2006,12,13,17,12,45.10
2006,12,13,17,13,46.70
2006,12,13,17,14,30.60
2006,12,13,17,15,29.00
2006,12,13,17,16,30.60
2006,12,13,17,17,19.30
2006,12,13,17,18,30.60
2006,12,13,17,19,24.20
2006,12,13,17,20,20.90